Change the Weather History Date:

Sunday, August 24, 2014

  Actual Average Record
Temperature  
Mean Temperature 83 °F -  
Max Temperature 93 °F 86 °F 103 °F (1938)
Min Temperature 73 °F 62 °F 46 °F (1920)
Cooling Degree Days 18    
Growing Degree Days 33 (Base 50)    
Moisture  
Dew Point 75 °F    
Average Humidity 77    
Maximum Humidity 93    
Minimum Humidity 54    
Precipitation  
Precipitation 0.00 in - - ()
Sea Level Pressure  
Sea Level Pressure 29.94 in    
Wind  
Wind Speed 5 mph (SE)    
Max Wind Speed 8 mph    
Max Gust Speed -    
Visibility 10 miles    
Events      
Averages and records for this station are not official NWS values.
T = Trace of Precipitation, MM = Missing Value Source: NWS Daily Summary

Daily Weather History Graph

Daily Weather History Graph

Search for Another Location

Airport or City:

Trip Planner

Search our weather history database for the weather conditions in past years. The results will help you decide how hot, cold, wet, or windy it might be!

Date:

Astronomy

Aug. 24, 2014 Rise Set
Actual Time 6:20 AM CDT 7:37 PM CDT
Civil Twilight 5:52 AM CDT 8:05 PM CDT
Nautical Twilight 5:20 AM CDT 8:37 PM CDT
Astronomical Twilight 4:45 AM CDT 9:11 PM CDT
Moon 5:30 AM CDT (8/24) 6:56 PM CDT (8/24)
Length of Visible Light 14h 12m
Length of Day
13h 17m
Waning Crescent, 1% of the Moon is Illuminated
Aug 24
Waning Crescent
Aug 25
New
Sep 2
First Quarter
Sep 8
Full
Sep 15
Last Quarter

Hourly Weather History & Observations

Time (CDT) Temp. Heat Index Dew Point Humidity Pressure Visibility Wind Dir Wind Speed Gust Speed Precip Events Conditions
12:52 AM 75.0 °F - 71.1 °F 87% 29.94 in 10.0 mi ESE 5.8 mph - N/A   Clear
1:52 AM 75.0 °F - 71.1 °F 87% 29.94 in 10.0 mi SE 5.8 mph - N/A   Clear
2:52 AM 75.0 °F - 71.1 °F 87% 29.94 in 10.0 mi SSE 4.6 mph - N/A   Clear
4:52 AM 73.0 °F - 70.0 °F 90% 29.93 in 8.0 mi SE 4.6 mph - N/A   Clear
5:52 AM 73.0 °F - 71.1 °F 93% 29.94 in 9.0 mi SSE 5.8 mph - N/A   Clear
7:52 AM 75.9 °F - 72.0 °F 87% 29.97 in 9.0 mi SSW 5.8 mph - N/A   Clear
8:52 AM 79.0 °F - 73.0 °F 82% 29.96 in 10.0 mi SSW 8.1 mph - N/A   Clear
9:52 AM 82.9 °F 89.4 °F 73.9 °F 74% 29.97 in 10.0 mi WSW 6.9 mph - N/A   Clear
10:52 AM 84.9 °F 93.3 °F 75.0 °F 72% 29.96 in 10.0 mi Calm Calm - N/A   Clear
11:52 AM 88.0 °F 97.5 °F 75.0 °F 65% 29.96 in 10.0 mi Variable 3.5 mph - N/A   Clear
12:52 PM 91.0 °F 101.6 °F 75.0 °F 59% 29.96 in 10.0 mi Calm Calm - N/A   Clear
1:52 PM 91.9 °F 105.9 °F 77.0 °F 62% 29.94 in 10.0 mi East 4.6 mph - N/A   Clear
2:52 PM 91.9 °F 100.7 °F 73.0 °F 54% 29.93 in 10.0 mi SE 5.8 mph - N/A   Clear
3:52 PM 93.0 °F 105.3 °F 75.9 °F 57% 29.92 in 10.0 mi ESE 6.9 mph - N/A   Clear
4:52 PM 93.0 °F 106.7 °F 77.0 °F 59% 29.91 in 10.0 mi East 5.8 mph - N/A   Clear
5:52 PM 90.0 °F 107.9 °F 80.1 °F 73% 29.91 in 10.0 mi Calm Calm - N/A   Clear
6:52 PM 87.1 °F 103.2 °F 80.1 °F 80% 29.91 in 10.0 mi East 4.6 mph - N/A   Clear
7:52 PM 82.9 °F 92.8 °F 78.1 °F 85% 29.93 in 10.0 mi East 4.6 mph - N/A   Clear
10:52 PM 80.1 °F 85.8 °F 77.0 °F 90% 29.97 in 8.0 mi Calm Calm - N/A   Clear
11:52 PM 80.1 °F 85.8 °F 77.0 °F 90% 29.98 in 9.0 mi SSE 3.5 mph - N/A   Clear